When you browse on this site, cookies collect data to enhance your experience and personalize the content and advertising you see.
Visit our Privacy Policy to learn more. By continuing to use the site, you agree to this use of cookies and data.
  • In Latvia
  • List of Countries
  • For 7 days
  • Water Temperature
  • Satellite Maps
  • Weather Map
  • Weather Widgets
  • user-avatar
    Login

    Hourly Weather Sololá

    Today, 21 June, Friday

    Time Temperature Precipitation Wind Pressure Humidity
    00:00 +14°C° 0 mm 2 mps 594 mmHg 86%
    01:00 +14°C° 0 mm 1 mps 593 mmHg 84%
    02:00 +14°C° 0 mm 1 mps 593 mmHg 83%
    03:00 +14°C° 0 mm 1 mps 592 mmHg 81%
    04:00 +14°C° 0 mm 1 mps 593 mmHg 79%
    05:00 +14°C° 0 mm 1 mps 593 mmHg 78%
    06:00 +14°C° 0 mm 1 mps 593 mmHg 77%
    07:00 +18°C° 0 mm 1 mps 595 mmHg 70%
    08:00 +20°C° 0 mm 1 mps 596 mmHg 64%
    09:00 +23°C° 0 mm 1 mps 598 mmHg 58%
    10:00 +23°C° 0.4 mm 1 mps 597 mmHg 61%
    11:00 +23°C° 0.4 mm 1 mps 597 mmHg 64%
    12:00 +24°C° 0.4 mm 2 mps 597 mmHg 68%
    13:00 +23°C° 1.8 mm 2 mps 596 mmHg 72%
    14:00 +22°C° 1.8 mm 1 mps 596 mmHg 77%
    15:00 +22°C° 1.8 mm 1 mps 595 mmHg 82%
    16:00 +21°C° 1.1 mm 1 mps 595 mmHg 86%
    17:00 +20°C° 1.1 mm 1 mps 595 mmHg 90%
    18:00 +17°C° 1.1 mm 0 mps 594 mmHg 94%
    19:00 +18°C° 1.4 mm 1 mps 595 mmHg 93%
    20:00 +18°C° 1.4 mm 1 mps 595 mmHg 93%
    21:00 +16°C° 1.4 mm 1 mps 595 mmHg 93%
    22:00 +15°C° 0.1 mm 1 mps 595 mmHg 92%
    23:00 +15°C° 0.1 mm 1 mps 595 mmHg 91%

    Tomorrow, 22 June, Saturday

    Time Temperature Precipitation Wind Pressure Humidity
    00:00 +15°C° 0.1 mm 1 mps 594 mmHg 90%
    01:00 +15°C° 0 mm 1 mps 594 mmHg 89%
    02:00 +15°C° 0 mm 1 mps 594 mmHg 88%
    03:00 +15°C° 0 mm 1 mps 593 mmHg 86%
    04:00 +15°C° 0 mm 1 mps 593 mmHg 86%
    05:00 +15°C° 0 mm 1 mps 593 mmHg 85%
    06:00 +14°C° 0 mm 1 mps 594 mmHg 85%
    07:00 +18°C° 0.1 mm 1 mps 595 mmHg 79%
    08:00 +20°C° 0.1 mm 1 mps 596 mmHg 73%
    09:00 +22°C° 0.1 mm 1 mps 597 mmHg 68%
    10:00 +22°C° 1.1 mm 1 mps 597 mmHg 69%
    11:00 +22°C° 1.1 mm 1 mps 597 mmHg 71%
    12:00 +23°C° 1.1 mm 2 mps 597 mmHg 72%
    13:00 +22°C° 1.5 mm 1 mps 597 mmHg 74%
    14:00 +22°C° 1.5 mm 1 mps 596 mmHg 76%
    15:00 +22°C° 1.5 mm 1 mps 595 mmHg 78%
    16:00 +21°C° 1.2 mm 1 mps 595 mmHg 83%
    17:00 +20°C° 1.2 mm 1 mps 595 mmHg 87%
    18:00 +17°C° 1.2 mm 0 mps 594 mmHg 92%
    19:00 +18°C° 0.9 mm 1 mps 594 mmHg 91%
    20:00 +16°C° 0.9 mm 1 mps 595 mmHg 91%
    21:00 +15°C° 0.9 mm 1 mps 595 mmHg 90%
    22:00 +15°C° 1 mm 1 mps 595 mmHg 92%
    23:00 +15°C° 1 mm 1 mps 595 mmHg 93%

    Day after tomorrow, 23 June, Sunday

    Time Temperature Precipitation Wind Pressure Humidity
    00:00 +15°C° 1 mm 1 mps 595 mmHg 95%
    01:00 +15°C° 0.2 mm 1 mps 594 mmHg 94%
    02:00 +15°C° 0.2 mm 1 mps 594 mmHg 93%
    03:00 +15°C° 0.2 mm 1 mps 594 mmHg 92%
    04:00 +15°C° 0 mm 1 mps 594 mmHg 91%
    05:00 +14°C° 0 mm 1 mps 594 mmHg 90%
    06:00 +14°C° 0 mm 1 mps 593 mmHg 89%
    07:00 +16°C° 0 mm 1 mps 595 mmHg 81%
    08:00 +19°C° 0 mm 1 mps 596 mmHg 73%
    09:00 +22°C° 0 mm 1 mps 597 mmHg 65%
    10:00 +22°C° 0.2 mm 1 mps 597 mmHg 66%
    11:00 +21°C° 0.2 mm 2 mps 597 mmHg 66%
    12:00 +23°C° 0.2 mm 2 mps 597 mmHg 67%
    13:00 +21°C° 1.1 mm 2 mps 596 mmHg 72%
    14:00 +21°C° 1.1 mm 2 mps 596 mmHg 77%
    15:00 +21°C° 1.1 mm 1 mps 595 mmHg 82%
    16:00 +20°C° 0.6 mm 1 mps 595 mmHg 85%
    17:00 +19°C° 0.6 mm 1 mps 594 mmHg 89%
    18:00 +18°C° 0.6 mm 1 mps 594 mmHg 93%
    19:00 +16°C° 0.4 mm 1 mps 594 mmHg 93%
    20:00 +15°C° 0.4 mm 1 mps 594 mmHg 94%
    21:00 +14°C° 0.4 mm 1 mps 594 mmHg 94%
    22:00 +14°C° 0.2 mm 1 mps 594 mmHg 93%
    23:00 +14°C° 0.2 mm 1 mps 594 mmHg 93%

    24 June, Monday

    Time Temperature Precipitation Wind Pressure Humidity
    00:00 +14°C° 0.2 mm 1 mps 593 mmHg 92%
    01:00 +14°C° 0.1 mm 1 mps 593 mmHg 92%
    02:00 +13°C° 0.1 mm 1 mps 593 mmHg 91%
    03:00 +13°C° 0.1 mm 1 mps 592 mmHg 91%
    04:00 +13°C° 0 mm 1 mps 592 mmHg 91%
    05:00 +13°C° 0 mm 1 mps 593 mmHg 90%
    06:00 +13°C° 0 mm 1 mps 593 mmHg 90%
    07:00 +16°C° 0 mm 1 mps 594 mmHg 82%
    08:00 +19°C° 0 mm 1 mps 595 mmHg 73%
    09:00 +21°C° 0 mm 1 mps 597 mmHg 65%
    10:00 +22°C° 0.1 mm 1 mps 597 mmHg 63%
    11:00 +23°C° 0.1 mm 2 mps 597 mmHg 62%
    12:00 +23°C° 0.1 mm 2 mps 597 mmHg 60%
    13:00 +23°C° 0.4 mm 2 mps 596 mmHg 63%
    14:00 +21°C° 0.4 mm 2 mps 595 mmHg 67%
    15:00 +21°C° 0.4 mm 2 mps 595 mmHg 70%
    16:00 +20°C° 0.3 mm 1 mps 594 mmHg 76%
    17:00 +19°C° 0.3 mm 1 mps 594 mmHg 82%
    18:00 +18°C° 0.3 mm 1 mps 593 mmHg 88%
    19:00 +16°C° 0.1 mm 1 mps 593 mmHg 90%
    20:00 +15°C° 0.1 mm 1 mps 593 mmHg 91%
    21:00 +14°C° 0.1 mm 1 mps 594 mmHg 93%
    22:00 +14°C° 0 mm 1 mps 593 mmHg 92%
    23:00 +13°C° 0 mm 1 mps 593 mmHg 90%

    25 June, Tuesday

    Time Temperature Precipitation Wind Pressure Humidity
    00:00 +13°C° 0 mm 1 mps 593 mmHg 88%
    01:00 +13°C° 0 mm 1 mps 592 mmHg 87%
    02:00 +12°C° 0 mm 1 mps 592 mmHg 86%
    03:00 +12°C° 0 mm 1 mps 592 mmHg 85%
    04:00 +12°C° 0 mm 1 mps 592 mmHg 85%
    05:00 +13°C° 0 mm 1 mps 592 mmHg 85%
    06:00 +13°C° 0 mm 1 mps 592 mmHg 84%
    07:00 +15°C° 0 mm 1 mps 594 mmHg 76%
    08:00 +19°C° 0 mm 1 mps 595 mmHg 67%
    09:00 +22°C° 0 mm 1 mps 597 mmHg 58%
    10:00 +23°C° 0 mm 1 mps 597 mmHg 54%
    11:00 +24°C° 0 mm 1 mps 597 mmHg 51%
    12:00 +25°C° 0 mm 2 mps 597 mmHg 47%
    13:00 +25°C° 0.4 mm 2 mps 596 mmHg 54%
    14:00 +24°C° 0.4 mm 2 mps 596 mmHg 60%
    15:00 +23°C° 0.4 mm 2 mps 595 mmHg 67%
    16:00 +21°C° 0.5 mm 2 mps 594 mmHg 74%
    17:00 +21°C° 0.5 mm 1 mps 594 mmHg 81%
    18:00 +19°C° 0.5 mm 1 mps 594 mmHg 88%
    19:00 +18°C° 0.6 mm 1 mps 594 mmHg 90%
    20:00 +16°C° 0.6 mm 1 mps 594 mmHg 93%
    21:00 +15°C° 0.6 mm 1 mps 594 mmHg 95%
    22:00 +15°C° 0.2 mm 1 mps 594 mmHg 95%
    23:00 +14°C° 0.2 mm 1 mps 594 mmHg 95%

    26 June, Wednesday

    Time Temperature Precipitation Wind Pressure Humidity
    00:00 +14°C° 0.2 mm 1 mps 593 mmHg 95%
    01:00 +14°C° 0 mm 2 mps 593 mmHg 94%
    02:00 +13°C° 0 mm 2 mps 593 mmHg 93%
    03:00 +13°C° 0 mm 2 mps 592 mmHg 92%
    04:00 +13°C° 0 mm 2 mps 592 mmHg 89%
    05:00 +14°C° 0 mm 2 mps 593 mmHg 87%
    06:00 +14°C° 0 mm 1 mps 593 mmHg 85%
    07:00 +16°C° 0 mm 1 mps 594 mmHg 78%
    08:00 +19°C° 0 mm 1 mps 595 mmHg 72%
    09:00 +21°C° 0 mm 1 mps 597 mmHg 65%
    10:00 +21°C° 0.2 mm 2 mps 597 mmHg 63%
    11:00 +23°C° 0.2 mm 2 mps 597 mmHg 61%
    12:00 +24°C° 0.2 mm 2 mps 597 mmHg 59%
    13:00 +23°C° 0.7 mm 2 mps 596 mmHg 63%
    14:00 +23°C° 0.7 mm 2 mps 596 mmHg 67%
    15:00 +21°C° 0.7 mm 2 mps 595 mmHg 71%
    16:00 +20°C° 0.7 mm 2 mps 595 mmHg 78%
    17:00 +20°C° 0.7 mm 1 mps 594 mmHg 85%
    18:00 +18°C° 0.7 mm 1 mps 594 mmHg 92%
    19:00 +16°C° 0.1 mm 1 mps 594 mmHg 92%
    20:00 +15°C° 0.2 mm 2 mps 594 mmHg 93%
    21:00 +14°C° 0.2 mm 2 mps 594 mmHg 93%
    22:00 +14°C° 0 mm 2 mps 593 mmHg 92%
    23:00 +14°C° 0 mm 2 mps 593 mmHg 90%
    Show more